Home > Weather > Ontario > Past weeks

Flag for USA Past Weather in Ontario, California, USA — Yesterday and Last 2 Weeks

Now
105 °F

Scattered clouds.


Feels Like: 100 °F
Forecast: 71 / 105 °F
Wind: 6 mph from Southwest

Location: Ontario International Airport

Current Time: Jul 23, 2016 at 2:16:21 PM

Latest Report: Jul 23, 2016 at 12:53 PM


Visibility: 10 mi

Pressure: 29.73 "Hg

Humidity: 11%

Dew Point: 40 °F

Location of OntarioLocation

Past Weather in Ontario — Graph

°F

Ontario Temperature Yesterday

Maximum temperature yesterday: 107 °F (at 2:53 PM)
Minimum temperature yesterday: 72 °F (at 5:53 AM)
Average temperature yesterday: 89 °F

High & Low Weather Summary for the Past Weeks

 TemperatureHumidityPressure
High107 °F (Jul 22, 2:53 PM)90% (Jul 14, 5:53 AM)30.01 "Hg (Jul 14, 5:53 AM)
Low62 °F (Jul 11, 5:53 AM)8% (Jul 21, 5:53 PM)29.73 "Hg (Jul 23, 12:53 PM)
Average79 °F47%29.89 "Hg
* Reported Jul 8 12:53 PM — Jul 23 12:53 PM, Ontario, Weather by CustomWeather, © 2016

Note: Actual official high and low records may vary slightly from our data, if they occured in-between our weather recording intervals... More about our weather records

Advertising

Ontario Weather History for the Previous 24 Hours

Scroll right to see more
 ConditionsComfort  
Time TempWeatherWind HumidityBarometerVisibility
12:53 PM
Sat, Jul 23
105 °FScattered clouds.6 mph11%29.73 "Hg10 mi
11:53 AM102 °FScattered clouds.6 mph12%29.75 "Hg10 mi
10:53 AM98 °FPartly sunny.3 mph14%29.76 "Hg10 mi
9:53 AM92 °FScattered clouds.3 mph21%29.79 "Hg10 mi
8:53 AM84 °FBroken clouds.3 mph33%29.80 "Hg10 mi
7:53 AM78 °FPartly sunny.No wind45%29.79 "Hg10 mi
6:53 AM74 °FPassing clouds.No wind50%29.78 "Hg10 mi
5:53 AM75 °FPassing clouds.No wind47%29.77 "Hg10 mi
4:53 AM75 °FPassing clouds.No wind45%29.75 "Hg10 mi
3:53 AM78 °FClear.No wind37%29.75 "Hg10 mi
2:53 AM77 °FClear.5 mph39%29.75 "Hg10 mi
1:53 AM82 °FClear.No wind32%29.75 "Hg10 mi
12:53 AM81 °FClear.No wind34%29.77 "Hg10 mi
11:53 PM
Fri, Jul 22
84 °FPassing clouds.No wind30%29.79 "Hg10 mi
10:53 PM85 °FPassing clouds.No wind28%29.79 "Hg10 mi
9:53 PM85 °FPassing clouds.6 mph26%29.80 "Hg10 mi
8:53 PM87 °FPassing clouds.6 mph24%29.79 "Hg10 mi
7:53 PM92 °FPassing clouds.7 mph18%29.78 "Hg10 mi
6:53 PM98 °FPassing clouds.9 mph13%29.77 "Hg10 mi
5:53 PM101 °FPassing clouds.13 mph14%29.77 "Hg10 mi
4:53 PM104 °FPassing clouds.16 mph16%29.77 "Hg10 mi
3:53 PM107 °FPassing clouds.12 mph10%29.78 "Hg10 mi
2:53 PM107 °FPassing clouds.10 mph10%29.80 "Hg10 mi
Weather by CustomWeather, © 2016

See weather overviewHow to use our weather pages